Current Version              Previous Version:    01  02  03  04  05  06  07  08  09  10  11  12  13  14  15  16  17  18  19  20  21  22  23  24  25  26  27  28  29  30  
   31  32  33  34  35  36  37  38  39  40  41  42  43  44  45  46  47  48  49  50  51  52  53  54  55  56  57  58  59  60  

[Printable]
533
ASUS44 KEWX 211210
RWRTX
SOUTH TEXAS REGIONAL WEATHER ROUNDUP
NATIONAL WEATHER SERVICE AUSTIN/SAN ANTONIO TX
700 AM CDT TUE OCT 21 2014

NOTE: "FAIR" INDICATED FEW OR NO CLOUDS BELOW 12,000 FEET WITH NO
SIGNIFICANT WEATHER AND/OR OBSTRUCTIONS TO VISIBILITY.

* - THESE STATIONS ARE NOT NWS OR FAA STATIONS...AND ARE NOT SUBJECT
    TO NWS AND FAA QUALITY CONTROL.

TXZ171-172-183>190-211300-
TEXAS HILL COUNTRY AND EDWARDS PLATEAU

CITY           SKY/WX    TMP DP  RH WIND       PRES   REMARKS
JUNCTION       CLEAR     52  50  93 NW3       30.07S
6HR MIN TEMP:  52; 6HR MAX TEMP:  60;

*LLANO         CLEAR     54  54 100 CALM      30.11R
BURNET         CLEAR     57  53  86 CALM      30.09R
6HR MIN TEMP:  56; 6HR MAX TEMP:  65;

*HORSESHOE BAY CLEAR     55  55 100 CALM      30.07R
6HR MIN TEMP:  55; 6HR MAX TEMP:  63;

*KERRVILLE     CLEAR     54  52  94 CALM      30.07S
6HR MIN TEMP:  54; 6HR MAX TEMP:  59;

*FREDERICKSBRG CLEAR     54  52  95 CALM      30.08R
6HR MIN TEMP:  53; 6HR MAX TEMP:  59;

*ROCKSPRINGS   CLEAR     59  55  88 CALM      30.09S
*BOERNE STAGE  PTCLDY    54  50  87 CALM      30.07S
*CASTROVILLE   PTCLDY    60  54  79 CALM      30.05S
HONDO          CLEAR     57  54  89 N3        30.06R
6HR MIN TEMP:  57; 6HR MAX TEMP:  65;

*UVALDE        CLEAR     65  60  83 NE6       30.03F
6HR MIN TEMP:  63; 6HR MAX TEMP:  68;

DEL RIO        CLOUDY    68  59  73 E6        30.02R
6HR MIN TEMP:  67; 6HR MAX TEMP:  72;

LAUGHLIN AFB   CLOUDY    67  60  79 E5        30.03R
6HR MIN TEMP:  64; 6HR MAX TEMP:  71;

CARRIZO SPRGS  CLOUDY    66  63  88 CALM      30.00S
$$

TXZ173-191>194-202-209-217>225-228-211300-
CENTRAL AND SOUTH CENTRAL TEXAS

CITY           SKY/WX    TMP DP  RH WIND       PRES   REMARKS
GEORGETOWN     CLEAR     55  54  94 CALM      30.06S
AUSTIN/BERGSTM CLEAR     55  54  96 CALM      30.05R
6HR MIN TEMP:  53; 6HR MAX TEMP:  62;

AUSTIN/MABRY   CLEAR     60  58  92 CALM      30.06R
6HR MIN TEMP:  60; 6HR MAX TEMP:  67;

*AUSTIN/EXEC   CLOUDY    59  57  94 N6        30.06S
*LAGO VISTA    CLEAR     61  58  89 CALM      30.07R
6HR MIN TEMP:  61; 6HR MAX TEMP:  67;

SAN MARCOS     CLEAR     57  52  82 N5        30.06R
NEW BRAUNFELS  CLEAR     62  61  96 NE7       30.03R
6HR MIN TEMP:  61; 6HR MAX TEMP:  67;

RANDOLPH AFB   CLEAR     60  56  87 N6        30.04S
6HR MIN TEMP:  60; 6HR MAX TEMP:  67;

PT SAN ANTONIO CLEAR     62  58  85 N3        30.02R
6HR MIN TEMP:  61; 6HR MAX TEMP:  70;

SAN ANTONIO    PTCLDY    62  58  86 NW3       30.04R
6HR MIN TEMP:  62; 6HR MAX TEMP:  69;

STINSON FIELD  PTCLDY    64  59  83 CALM      30.02R
6HR MIN TEMP:  63; 6HR MAX TEMP:  69;

*PLEASANTON    CLEAR     61  58  88 CALM      30.03R
6HR MIN TEMP:  61; 6HR MAX TEMP:  65;

*LA GRANGE     CLEAR     58  56  96 CALM      30.02R
6HR MIN TEMP:  58; 6HR MAX TEMP:  64;

*GIDDINGS      CLEAR     58  57  95 CALM      30.08S
6HR MIN TEMP:  55; 6HR MAX TEMP:  65;

*GONZALES      CLEAR     63  59  87 NE6       30.02S
6HR MIN TEMP:  61; 6HR MAX TEMP:  67;

$$

TXZ163>164-176>182-195>201-210>213-226-227-235-211300-
SOUTHEAST TEXAS

CITY           SKY/WX    TMP DP  RH WIND       PRES   REMARKS
COLLEGE STN    CLEAR     58  54  86 CALM      30.05R
6HR MIN TEMP:  58; 6HR MAX TEMP:  65;

*BRYAN         CLEAR     55  54  97 N3        30.07R
6HR MIN TEMP:  54; 6HR MAX TEMP:  62;

*CALDWELL      CLEAR     55  55 100 N3        30.09R FOG
*CROCKETT      CLEAR     52  52 100 CALM      30.09R
*BRENHAM       CLEAR     57  56  96 CALM      30.05R
6HR MIN TEMP:  56; 6HR MAX TEMP:  65;

HUNTSVILLE     CLEAR     52  50  93 CALM      30.05R
6HR MIN TEMP:  52; 6HR MAX TEMP:  60;

CONROE         CLEAR     52  50  93 CALM      30.05R
6HR MIN TEMP:  51; 6HR MAX TEMP:  57;

HOUSTON BUSH   PTCLDY    58  54  86 NE3       30.03R
6HR MIN TEMP:  57; 6HR MAX TEMP:  64;

HOUSTON HOBBY  CLEAR     62  57  83 NE3       30.02R
6HR MIN TEMP:  60; 6HR MAX TEMP:  67;

*HOUSTON SW AP CLEAR     54  53  97 N3        30.03R
6HR MIN TEMP:  54; 6HR MAX TEMP:  60;

PEARLAND       CLEAR     61  57  87 N5        30.03R
6HR MIN TEMP:  60; 6HR MAX TEMP:  68;

HOUSTON HOOKS  CLEAR     55  52  89 CALM      30.04R
6HR MIN TEMP:  55; 6HR MAX TEMP:  67;

ELLINGTON FLD  PTCLDY    63  57  82 N3        30.04R
SUGAR LAND     CLEAR     61  56  83 NE6       30.02S
6HR MIN TEMP:  57; 6HR MAX TEMP:  64;

*HOUSTON EXEC  CLEAR     54 N/A N/A NE6       30.04S
*CLEVELAND MUN NOT AVBL
*WHARTON       CLEAR     58  56  91 CALM      30.02S
6HR MIN TEMP:  58; 6HR MAX TEMP:  63;

*COLUMBUS      FAIR      59  56  88 NE3       30.02S
6HR MIN TEMP:  55; 6HR MAX TEMP:  62;

$$

TXZ214>216-236>238-211300-
THE UPPER TEXAS COAST

CITY           SKY/WX    TMP DP  RH WIND       PRES   REMARKS
*ORANGE        CLEAR    N/A N/A N/A CALM      30.06R
PORT ARTHUR    CLEAR     57  54  89 N6        30.03R
6HR MIN TEMP:  55; 6HR MAX TEMP:  62;

GALVESTON      CLEAR     68  65  90 NE10      30.01R
6HR MIN TEMP:  67; 6HR MAX TEMP:  71;

ANGLETON       CLEAR     60  59  96 NE6       30.00S
6HR MIN TEMP:  57; 6HR MAX TEMP:  64;

*BAY CITY        N/A     63  61  94 NE6       30.00S
PALACIOS       CLEAR     62  60  93 NE7       29.99R
6HR MIN TEMP:  62; 6HR MAX TEMP:  68;

$$

TXZ229>234-239>247-211300-
TEXAS COASTAL BEND AND RIO GRANDE PLAINS

CITY           SKY/WX    TMP DP  RH WIND       PRES   REMARKS
VICTORIA       CLEAR     62  60  93 N6        30.01R FOG
6HR MIN TEMP:  62; 6HR MAX TEMP:  66;

*BEEVILLE      CLEAR     66  66  98 NE7       29.99S
6HR MIN TEMP:  66; 6HR MAX TEMP:  69;

ROCKPORT       CLEAR     70  67  90 NE9       29.97R
6HR MIN TEMP:  70; 6HR MAX TEMP:  76;

*PORT ARANSAS  MOCLDY    75  68  78 E12       29.96S
6HR MIN TEMP:  75; 6HR MAX TEMP:  76;

*PORT LAVACA   CLEAR     66  62  87 NE9       30.00R
6HR MIN TEMP:  66; 6HR MAX TEMP:  71;

*INGLESIDE     PTCLDY    70  68  93 NE8       29.97R
CORPUS CHRISTI PTCLDY    71  69  93 NE12      29.96S
6HR MIN TEMP:  71; 6HR MAX TEMP:  75;

CORPUS NAS     PTCLDY    75  71  87 NE10      29.95S
6HR MIN TEMP:  75; 6HR MAX TEMP:  76;

*ROBSTOWN      NOT AVBL
ALICE          PTCLDY    69  67  93 NE10      29.97R FOG
6HR MIN TEMP:  69; 6HR MAX TEMP:  72;

KINGSVILLE NAS PTCLDY    70  70 100 N9        29.96R
6HR MIN TEMP:  70; 6HR MAX TEMP:  72;

COTULLA        MOCLDY    67  63  87 NE9       30.01R
6HR MIN TEMP:  67; 6HR MAX TEMP:  72;

*FAITH RANCH   CLOUDY    70  68  94 E7        30.01S
LAREDO         CLOUDY    72  71  96 NE6       30.01R
6HR MIN TEMP:  69; 6HR MAX TEMP:  72;

$$

TXZ248>255-211300-
DEEP SOUTH TEXAS

CITY           SKY/WX    TMP DP  RH WIND       PRES   REMARKS
BROWNSVILLE    CLEAR     70  68  93 N3        29.91S
6HR MIN TEMP:  70; 6HR MAX TEMP:  74;

PORT ISABEL    PTCLDY    77  70  79 E7        29.91R
6HR MIN TEMP:  74; 6HR MAX TEMP:  77; 6HR PCP: TRACE;

*SOUTH PADRE   MOCLDY    81  72  74 E10       29.91S
HARLINGEN      CLEAR     69  68  96 NW6       29.91S
6HR MIN TEMP:  68; 6HR MAX TEMP:  73;

*HEBBRONVILLE  MOCLDY    69  68  95 NE6       29.99S
MCALLEN        PTCLDY    71  69  93 N7        29.94R